Location: Newark
(35.0317°N, 117.3481°W)
Time: 17:13:44
(UTC+00:00)

Tiangong 2 - Visible Passes

Search period start: 20 March 2019 00:00
Search period end: 30 March 2019 00:00
Orbit: 379 x 390 km, 42.8° (Epoch: 19 March)

Date Brightness Start Highest point End Pass type
(mag) Time Alt. Az. Time Alt. Az. Time Alt. Az.
20 Mar 2.4 12:44:58 16° NW 12:47:04 35° NNE 12:50:01 10° E visible
21 Mar 3.5 11:48:22 22° NE 11:48:22 22° NE 11:50:09 10° ENE visible
21 Mar 1.0 13:21:14 10° WNW 13:24:24 78° SSW 13:27:35 10° ESE visible
22 Mar 1.6 12:24:07 41° NNW 12:24:55 56° NNE 12:28:02 10° ESE visible
23 Mar 4.4 11:27:46 13° E 11:27:46 13° E 11:28:16 10° E visible
23 Mar 1.7 13:00:01 17° W 13:02:05 38° SW 13:05:04 10° SE visible
24 Mar 2.4 12:03:48 35° SE 12:03:48 35° SE 12:05:49 10° ESE visible
25 Mar 2.8 12:40:02 19° SSW 12:40:02 19° SSW 12:42:01 10° S visible
28 Mar 3.5 03:11:43 10° S 03:11:59 11° SSE 03:11:59 11° SSE visible
29 Mar 2.9 03:47:06 10° SW 03:48:31 23° SW 03:48:31 23° SW visible
